Southbury, CT

10:44 AM EST on February 23, 2017 (GMT -0500)
Waterbury-Oxford

Weather History for KOXC - October, 2011

Change the Weather History Date:

Thursday, October 27, 2011

  Actual Average Record
Temperature  
Mean Temperature 42 °F -  
Max Temperature 50 °F 53 °F 69 °F (2010)
Min Temperature 33 °F 37 °F 26 °F (2006)
Degree Days  
Heating Degree Days 24    
Moisture  
Dew Point 38 °F    
Average Humidity 83    
Maximum Humidity 87    
Minimum Humidity 76    
Precipitation  
Precipitation 0.02 in - - ()
Sea Level Pressure  
Sea Level Pressure 29.75 in    
Wind  
Wind Speed 6 mph (NNE)    
Max Wind Speed 16 mph    
Max Gust Speed 24 mph    
Visibility 8 miles    
Events Rain , Snow    
Averages and records for this station are not official NWS values.
T = Trace of Precipitation, MM = Missing Value Source: NWS Daily Summary

Daily Weather History Graph

Daily Weather History Graph

Search for Another Location

Airport or City:

Trip Planner

Search our weather history database for the weather conditions in past years. The results will help you decide how hot, cold, wet, or windy it might be!

Date:

Astronomy

Oct. 27, 2011 Rise Set
Actual Time 7:17 AM EDT 5:54 PM EDT
Civil Twilight 6:49 AM EDT 6:22 PM EDT
Nautical Twilight 6:16 AM EDT 6:55 PM EDT
Astronomical Twilight 5:44 AM EDT 7:27 PM EDT
Moon 8:19 AM EDT (10/27) 6:19 PM EDT (10/27)
Length of Visible Light 11h 33m
Length of Day
10h 36m
New Moon, 1% of the Moon is Illuminated
Oct 27
New Moon
Nov 2
First Quarter
Nov 10
Full
Nov 18
Last Quarter
Nov 25
New

Hourly Weather History & Observations

Time (EDT) Temp. Windchill Dew Point Humidity Pressure Visibility Wind Dir Wind Speed Gust Speed Precip Events Conditions
12:15 AM 50.0 °F - 42.8 °F 76% 29.75 in 10.0 mi SSE 5.8 mph - N/A   Overcast
12:35 AM 50.0 °F - 42.8 °F 76% 29.75 in 10.0 mi Calm Calm - N/A   Overcast
1:15 AM 50.0 °F - 42.8 °F 76% 29.74 in 10.0 mi Calm Calm - N/A   Overcast
1:35 AM 50.0 °F - 42.8 °F 76% 29.74 in 10.0 mi Calm Calm - N/A   Overcast
1:55 AM 50.0 °F - 42.8 °F 76% 29.73 in 10.0 mi Calm Calm - N/A   Overcast
2:15 AM 50.0 °F - 42.8 °F 76% 29.73 in 10.0 mi ESE 3.5 mph - N/A   Overcast
2:35 AM 50.0 °F - 42.8 °F 76% 29.71 in 10.0 mi East 3.5 mph - N/A   Overcast
2:55 AM 48.2 °F - 42.8 °F 82% 29.71 in 10.0 mi Calm Calm - N/A   Overcast
3:15 AM 48.2 °F - 42.8 °F 82% 29.70 in 10.0 mi Calm Calm - N/A   Overcast
3:35 AM 50.0 °F - 44.6 °F 82% 29.69 in 10.0 mi Calm Calm - N/A   Overcast
3:55 AM 48.2 °F - 44.6 °F 87% 29.69 in 10.0 mi Calm Calm - N/A   Overcast
4:35 AM 48.2 °F - 42.8 °F 82% 29.69 in 10.0 mi Calm Calm - N/A   Overcast
4:55 AM 48.2 °F - 42.8 °F 82% 29.69 in 10.0 mi ENE 5.8 mph - N/A   Overcast
5:15 AM 46.4 °F 45.2 °F 42.8 °F 87% 29.70 in 10.0 mi NE 3.5 mph - N/A   Overcast
5:35 AM 46.4 °F 43.5 °F 42.8 °F 87% 29.69 in 10.0 mi ENE 5.8 mph - N/A   Overcast
5:45 AM 46.4 °F 42.9 °F 42.8 °F 87% 29.70 in 5.0 mi ENE 6.9 mph - N/A Rain Light Rain
6:55 AM 44.6 °F 38.8 °F 41.0 °F 87% 29.71 in 4.0 mi NE 11.5 mph 17.3 mph N/A Rain Light Rain
8:45 AM 44.6 °F 38.4 °F 39.2 °F 81% 29.73 in 4.0 mi NNE 12.7 mph - N/A Rain Light Rain
9:45 AM 42.8 °F 36.6 °F 39.2 °F 87% 29.72 in 5.0 mi NE 11.5 mph 17.3 mph N/A Rain Light Rain
10:45 AM 42.8 °F 39.3 °F 37.4 °F 81% 29.71 in 10.0 mi NE 5.8 mph 17.3 mph N/A   Overcast
11:45 AM 42.8 °F 37.5 °F 37.4 °F 81% 29.71 in 2.0 mi ENE 9.2 mph - N/A Rain Light Rain
12:45 PM 42.8 °F 36.6 °F 37.4 °F 81% 29.68 in 2.0 mi NE 11.5 mph - N/A Rain Light Rain
1:55 PM 41.0 °F 33.5 °F 37.4 °F 87% 29.69 in 2.0 mi NNE 13.8 mph - N/A Rain Light Rain
3:45 PM 41.0 °F 33.5 °F 37.4 °F 87% 29.64 in 5.0 mi ENE 13.8 mph - N/A Rain Light Rain
4:45 PM 39.2 °F 32.5 °F 35.6 °F 87% 29.65 in 3.0 mi NE 10.4 mph - N/A Rain Light Rain
5:45 PM 37.4 °F 28.2 °F 33.8 °F 87% 29.68 in 3.0 mi NNE 16.1 mph 24.2 mph N/A Rain Light Rain
6:55 PM 33.8 °F 23.9 °F 30.2 °F 87% 29.74 in 3.0 mi NNE 15.0 mph 21.9 mph N/A Rain Light Rain
7:55 PM 33.8 °F 25.3 °F 30.2 °F 87% 29.78 in 1.0 mi North 11.5 mph - N/A Snow Light Snow
8:45 PM 33.8 °F 23.9 °F 30.2 °F 87% 29.81 in 3.0 mi NNE 15.0 mph - N/A Snow Light Snow
9:15 PM 33.8 °F 26.4 °F 30.2 °F 87% 29.84 in 10.0 mi North 9.2 mph - 0.01 in   Mostly Cloudy
9:35 PM 35.6 °F 28.0 °F 32.0 °F 87% 29.85 in 10.0 mi North 10.4 mph - 0.01 in   Overcast
9:55 PM 35.6 °F 27.5 °F 30.2 °F 81% 29.86 in 10.0 mi North 11.5 mph - 0.01 in   Overcast
10:15 PM 35.6 °F 27.1 °F 30.2 °F 81% 29.89 in 10.0 mi NNW 12.7 mph 17.3 mph 0.01 in   Overcast
10:35 PM 35.6 °F 26.6 °F 30.2 °F 81% 29.90 in 10.0 mi North 13.8 mph - 0.01 in   Mostly Cloudy
11:15 PM 35.6 °F 25.9 °F 30.2 °F 81% 29.90 in 10.0 mi NNW 16.1 mph 20.7 mph N/A   Overcast
11:55 PM 35.6 °F 27.1 °F 30.2 °F 81% 29.93 in 10.0 mi NNW 12.7 mph 21.9 mph N/A   Overcast